�N����,����,�~����,�C��,���x,�C��,����,���ϕ���,�ő�u�ԕ���,�ő厞����,���˗�,�I�_���x,�n�����x,�ő啗���N��,DTYPE
"23/08/16","00:10",0.8,24.9,96.0,994.6,172.9,0.7,1.6,156.5,0.00,24.3,25.2,"00:01:52",1
"23/08/16","00:20",8.2,24.8,96.0,994.1,317.0,1.0,2.6,156.0,0.00,24.2,25.2,"00:19:20",1
"23/08/16","00:30",5.0,24.7,96.0,994.4,136.3,1.5,3.3,143.6,0.00,24.1,24.9,"00:25:20",1
"23/08/16","00:40",3.2,24.8,96.0,994.4,190.2,1.7,3.2,224.8,0.00,24.2,25.2,"00:34:48",1
"23/08/16","00:50",0.2,24.8,96.0,994.4,125.5,0.6,1.4,140.9,0.00,24.2,24.9,"00:40:40",1
"23/08/16","01:00",0.8,24.8,96.0,994.1,91.9,0.5,1.3,120.5,0.00,24.2,25.0,"00:52:40",1
"23/08/16","01:10",0.0,24.9,96.0,994.6,124.3,0.5,1.6,130.7,0.00,24.3,25.1,"01:03:44",1
"23/08/16","01:20",1.0,24.9,96.0,994.4,146.5,0.2,0.8,331.6,0.00,24.3,25.1,"01:18:08",1
"23/08/16","01:30",0.6,24.9,96.0,994.6,25.3,0.5,1.3,336.0,0.00,24.3,25.1,"01:22:32",1
"23/08/16","01:40",0.2,24.9,96.1,994.8,162.3,0.5,1.2,111.3,0.00,24.3,25.1,"01:32:40",1
"23/08/16","01:50",0.0,24.9,96.1,994.6,330.7,0.6,2.0,351.7,0.00,24.3,25.0,"01:44:40",1
"23/08/16","02:00",0.0,24.9,96.1,994.8,217.7,0.5,1.2,195.8,0.00,24.3,25.0,"01:57:20",1
"23/08/16","02:10",0.8,24.9,96.1,994.8,76.7,0.3,1.4,150.6,0.00,24.3,25.2,"02:00:56",1
"23/08/16","02:20",2.8,24.9,96.1,994.8,277.0,0.7,1.7,359.4,0.00,24.3,25.1,"02:19:28",1
"23/08/16","02:30",1.8,25.0,96.2,995.3,298.8,0.8,1.7,345.3,0.00,24.4,25.2,"02:24:34",1
"23/08/16","02:40",4.0,25.0,96.2,995.3,158.5,1.2,3.1,127.6,0.00,24.4,25.1,"02:39:36",1
"23/08/16","02:50",6.0,25.2,96.3,995.1,285.6,2.0,4.9,2.7,0.00,24.6,25.1,"02:42:18",1
"23/08/16","03:00",3.2,25.1,96.2,995.1,176.5,1.6,2.9,255.9,0.00,24.5,25.0,"02:50:08",1
"23/08/16","03:10",5.2,25.0,96.2,995.1,135.9,1.1,3.9,177.8,0.00,24.4,25.2,"03:01:36",1
"23/08/16","03:20",2.0,24.9,96.2,995.1,195.2,1.0,2.5,197.2,0.00,24.3,25.1,"03:16:24",1
"23/08/16","03:30",0.6,24.7,96.4,995.3,224.4,1.5,2.6,238.6,0.00,24.1,25.1,"03:21:20",1
"23/08/16","03:40",0.8,24.7,96.4,995.6,196.6,0.6,1.6,205.3,0.00,24.1,24.8,"03:37:52",1
"23/08/16","03:50",1.8,24.7,96.4,995.6,322.0,0.5,0.9,25.6,0.00,24.1,25.1,"03:40:48",1
"23/08/16","04:00",0.2,24.7,96.4,995.6,326.4,0.3,0.8,289.3,0.00,24.1,25.2,"03:51:28",1
"23/08/16","04:10",0.4,24.7,96.4,995.8,323.0,0.1,0.6,3.3,0.00,24.1,24.9,"04:03:52",1
"23/08/16","04:20",0.2,24.7,96.4,995.6,314.8,0.6,1.2,345.0,0.00,24.1,24.9,"04:12:24",1
"23/08/16","04:30",0.0,24.7,96.4,996.0,278.3,0.2,0.6,344.1,0.00,24.1,25.2,"04:26:08",1
"23/08/16","04:40",0.4,24.6,96.5,995.8,311.1,0.3,0.9,308.4,0.00,24.0,25.1,"04:34:24",1
"23/08/16","04:50",0.6,24.7,96.5,995.8,342.4,0.5,1.1,244.8,0.00,24.1,25.2,"04:47:46",1
"23/08/16","05:00",0.0,24.6,96.5,996.0,277.8,0.5,0.9,350.3,0.00,24.0,25.1,"04:55:36",1
"23/08/16","05:10",0.0,24.7,96.5,996.3,336.3,0.3,1.0,5.4,0.00,24.1,25.1,"05:03:44",1
"23/08/16","05:20",0.0,24.7,96.5,996.5,325.3,0.3,1.0,347.9,0.00,24.1,25.2,"05:17:20",1
"23/08/16","05:30",0.0,24.7,96.5,996.5,258.2,0.6,1.3,229.7,0.00,24.1,25.0,"05:23:12",1
"23/08/16","05:40",0.0,24.7,96.5,996.7,192.2,0.3,1.0,227.0,0.00,24.1,25.0,"05:31:12",1
"23/08/16","05:50",0.2,24.8,96.5,996.7,309.2,0.5,1.1,343.1,0.00,24.2,25.1,"05:47:04",1
"23/08/16","06:00",0.0,24.8,96.5,997.0,313.5,0.6,1.2,253.7,0.00,24.2,25.0,"05:56:00",1
"23/08/16","06:10",0.0,24.8,96.6,997.0,313.5,0.2,0.8,337.3,0.00,24.3,25.1,"06:02:16",1
"23/08/16","06:20",0.0,24.8,96.6,997.2,341.3,0.3,1.3,4.3,0.00,24.3,25.2,"06:14:16",1
"23/08/16","06:30",0.0,25.0,96.6,997.2,349.9,0.6,1.1,359.6,0.00,24.5,25.0,"06:20:16",1
"23/08/16","06:40",0.0,25.1,96.6,997.2,300.6,0.2,0.9,291.6,0.02,24.6,25.0,"06:32:48",1
"23/08/16","06:50",0.0,25.3,96.6,997.4,213.3,0.5,1.4,238.4,0.04,24.8,24.9,"06:47:28",1
"23/08/16","07:00",0.0,25.7,96.6,997.4,196.9,0.1,0.9,116.8,0.08,25.2,25.0,"06:59:28",1
"23/08/16","07:10",0.0,26.1,96.4,997.4,186.5,0.2,1.2,136.2,0.08,25.5,25.1,"07:02:56",1
"23/08/16","07:20",0.0,26.3,96.6,997.4,222.3,0.5,1.1,195.9,0.16,25.8,25.1,"07:10:40",1
"23/08/16","07:30",0.0,26.5,96.4,997.2,319.9,0.5,1.1,316.4,0.17,25.9,25.0,"07:23:36",1
"23/08/16","07:40",0.0,26.7,96.3,997.4,359.1,0.2,1.0,347.0,0.10,26.1,25.0,"07:35:28",1
"23/08/16","07:50",0.0,26.5,96.3,997.0,63.5,0.3,1.4,120.6,0.05,25.9,25.2,"07:48:08",1
"23/08/16","08:00",0.0,26.7,96.2,997.2,116.4,0.3,1.1,107.8,0.07,26.1,25.2,"07:58:40",1
"23/08/16","08:10",0.0,26.7,96.2,997.2,95.6,0.5,1.6,94.5,0.07,26.1,25.2,"08:08:56",1
"23/08/16","08:20",0.0,26.9,96.2,997.2,358.6,0.3,1.4,356.2,0.06,26.3,25.2,"08:19:28",1
"23/08/16","08:30",0.0,27.7,96.5,997.2,355.4,0.6,1.6,348.9,0.30,27.1,25.1,"08:20:16",1
"23/08/16","08:40",0.0,28.0,96.2,996.7,6.7,0.6,1.3,352.7,0.31,27.4,25.3,"08:34:16",1
"23/08/16","08:50",0.0,28.2,95.8,997.0,356.1,0.5,1.4,347.6,0.23,27.5,25.3,"08:42:08",1
"23/08/16","09:00",0.0,27.7,95.6,997.2,351.6,1.1,2.2,348.9,0.27,27.0,25.2,"08:52:40",1
"23/08/16","09:10",0.0,28.2,94.8,997.9,233.5,0.7,1.9,152.8,0.38,27.3,25.2,"09:09:44",1
"23/08/16","09:20",0.0,28.2,93.5,998.2,191.3,1.3,3.3,224.7,0.31,27.1,25.4,"09:13:04",1
"23/08/16","09:30",0.0,28.1,93.5,997.7,195.2,1.1,2.4,167.4,0.15,27.0,25.3,"09:26:56",1
"23/08/16","09:40",0.0,28.5,91.7,998.2,156.1,1.0,3.2,183.5,0.18,27.1,25.3,"09:32:08",1
"23/08/16","09:50",0.0,28.9,90.5,998.4,168.5,1.5,3.1,151.2,0.25,27.2,25.3,"09:40:24",1
"23/08/16","10:00",0.0,29.7,86.6,998.6,171.1,1.5,2.8,137.5,0.21,27.3,25.5,"09:53:04",1
"23/08/16","10:10",0.0,29.9,83.2,998.6,200.9,1.3,3.4,231.4,0.12,26.8,25.3,"10:07:36",1
"23/08/16","10:20",0.0,30.6,80.5,998.2,191.0,1.1,2.6,126.3,0.21,26.9,25.6,"10:19:04",1
"23/08/16","10:30",0.0,30.4,79.5,998.2,184.1,1.7,4.1,231.2,0.14,26.5,25.7,"10:21:12",1
"23/08/16","10:40",0.0,31.7,78.1,998.2,174.9,1.6,3.1,190.7,0.51,27.4,25.5,"10:39:20",1
"23/08/16","10:50",0.0,32.1,75.0,998.6,176.4,2.0,4.1,217.4,0.51,27.1,25.7,"10:46:00",1
"23/08/16","11:00",0.0,32.1,71.9,998.6,182.3,2.2,4.5,195.2,0.45,26.4,25.6,"10:54:24",1
"23/08/16","11:10",0.0,31.8,72.1,998.6,165.7,2.2,3.7,195.7,0.28,26.2,25.7,"11:07:52",1
"23/08/16","11:20",0.0,32.5,71.5,998.4,199.6,2.2,3.9,214.0,0.39,26.7,25.6,"11:10:48",1
"23/08/16","11:30",0.0,32.1,70.8,998.4,213.2,1.5,3.5,210.7,0.18,26.2,25.9,"11:27:52",1
"23/08/16","11:40",0.0,32.2,70.0,998.2,200.5,1.8,5.4,231.4,0.33,26.1,26.0,"11:37:52",1
"23/08/16","11:50",0.0,33.4,68.3,998.2,218.0,2.0,4.7,226.4,0.55,26.8,25.9,"11:42:48",1
"23/08/16","12:00",0.0,33.4,69.0,998.9,197.3,2.2,4.8,170.7,0.43,27.0,25.9,"11:56:16",1
"23/08/16","12:10",0.0,33.4,66.4,998.6,233.6,2.0,4.8,326.5,0.44,26.3,26.3,"12:05:20",1
"23/08/16","12:20",0.0,33.5,67.4,998.4,220.6,2.3,4.9,215.7,0.51,26.7,26.3,"12:16:48",1
"23/08/16","12:30",0.0,33.6,65.2,998.9,200.2,2.6,5.5,210.1,0.47,26.2,26.2,"12:28:48",1
"23/08/16","12:40",0.0,33.6,64.7,998.2,221.2,1.3,4.2,221.9,0.35,26.1,26.2,"12:38:32",1
"23/08/16","12:50",0.0,33.8,63.1,998.6,227.1,2.8,6.7,221.5,0.56,25.8,26.3,"12:43:20",1
"23/08/16","13:00",0.0,33.5,62.5,998.4,236.1,2.6,8.2,197.8,0.43,25.4,26.4,"12:51:52",1
"23/08/16","13:10",0.0,34.0,60.8,998.4,243.4,2.2,6.8,224.5,0.57,25.4,26.2,"13:09:36",1
"23/08/16","13:20",0.0,34.5,61.8,998.4,229.6,2.1,4.9,217.7,0.51,26.1,26.6,"13:10:16",1
"23/08/16","13:30",0.0,34.5,61.3,998.6,215.6,2.5,6.4,226.9,0.53,26.0,26.5,"13:29:12",1
"23/08/16","13:40",0.0,34.3,61.3,998.4,210.5,2.7,6.2,220.1,0.50,25.8,26.7,"13:34:24",1
"23/08/16","13:50",0.0,34.4,61.7,998.6,200.4,2.0,4.7,217.6,0.49,26.0,26.9,"13:46:16",1
"23/08/16","14:00",0.0,34.5,58.9,998.9,237.9,2.1,5.9,339.4,0.46,25.3,26.9,"13:50:24",1
"23/08/16","14:10",0.0,34.2,59.6,998.6,226.3,3.0,5.5,243.8,0.38,25.2,26.8,"14:07:04",1
"23/08/16","14:20",0.0,34.2,60.3,997.9,219.1,3.1,5.6,211.0,0.37,25.4,27.0,"14:15:12",1
"23/08/16","14:30",0.0,34.5,59.7,998.2,187.4,2.3,4.9,230.0,0.42,25.6,26.9,"14:24:48",1
"23/08/16","14:40",0.2,34.8,60.6,998.2,197.5,2.2,4.3,218.4,0.42,26.1,27.0,"14:39:52",1
"23/08/16","14:50",0.0,34.9,59.9,998.4,231.0,2.1,4.1,256.5,0.33,26.0,27.1,"14:45:12",1
"23/08/16","15:00",0.0,34.3,59.1,998.4,248.9,1.6,4.8,233.3,0.20,25.2,27.1,"14:50:48",1
"23/08/16","15:10",0.0,33.6,59.2,998.2,250.8,1.3,3.6,231.9,0.12,24.6,27.2,"15:00:40",1
"23/08/16","15:20",0.0,34.0,59.9,997.4,209.4,0.7,1.8,213.5,0.21,25.1,27.3,"15:13:44",1
"23/08/16","15:30",0.0,34.3,59.8,997.9,233.5,1.7,5.9,220.3,0.27,25.4,27.2,"15:25:36",1
"23/08/16","15:40",0.0,34.5,59.7,997.9,205.4,2.6,5.7,212.3,0.33,25.6,27.2,"15:32:16",1
"23/08/16","15:50",0.0,34.4,60.4,998.2,217.9,2.6,5.1,228.6,0.28,25.7,27.3,"15:46:00",1
"23/08/16","16:00",0.0,34.6,58.4,997.9,229.6,1.6,2.9,239.7,0.25,25.3,27.4,"15:50:08",1
"23/08/16","16:10",0.0,34.6,57.8,997.9,236.2,1.7,4.9,222.8,0.23,25.1,27.4,"16:01:52",1
"23/08/16","16:20",0.0,34.6,57.4,997.9,260.7,1.3,2.8,336.8,0.19,25.0,27.3,"16:14:08",1
"23/08/16","16:30",0.0,34.1,59.0,997.9,276.9,1.3,2.9,343.1,0.10,25.0,27.4,"16:26:24",1
"23/08/16","16:40",0.0,34.2,55.8,998.2,257.2,1.2,3.9,341.5,0.15,24.1,27.5,"16:31:04",1
"23/08/16","16:50",0.0,34.1,56.8,998.2,230.7,1.2,3.2,233.0,0.10,24.3,27.5,"16:42:32",1
"23/08/16","17:00",0.0,33.2,59.6,998.2,238.6,1.1,2.7,200.6,0.03,24.3,27.7,"16:53:28",1
"23/08/16","17:10",0.0,32.8,60.6,997.7,250.7,1.0,2.5,245.5,0.02,24.2,27.6,"17:04:32",1
"23/08/16","17:20",0.0,32.7,62.2,997.4,233.5,0.8,2.1,231.8,0.02,24.6,27.6,"17:16:24",1
"23/08/16","17:30",0.0,32.4,62.9,997.0,223.8,1.2,2.6,218.3,0.02,24.5,27.7,"17:24:48",1
"23/08/16","17:40",0.0,32.5,63.3,997.2,248.1,0.7,2.0,244.7,0.03,24.7,27.6,"17:31:52",1
"23/08/16","17:50",0.0,32.4,64.7,996.7,233.1,0.8,2.6,224.8,0.02,24.9,27.4,"17:47:36",1
"23/08/16","18:00",0.0,32.1,66.9,996.7,290.6,0.3,0.9,236.3,0.00,25.2,27.5,"17:51:04",1
"23/08/16","18:10",0.0,31.6,68.9,997.2,342.9,0.5,0.9,343.8,0.00,25.2,27.4,"18:04:00",1
"23/08/16","18:20",0.0,31.1,71.3,996.7,340.0,0.7,1.4,355.7,0.00,25.3,27.6,"18:11:44",1
"23/08/16","18:30",0.0,30.5,74.8,996.5,352.1,0.7,1.2,348.0,0.00,25.6,27.5,"18:23:20",1
"23/08/16","18:40",0.0,29.7,76.8,996.7,350.2,0.6,1.6,339.8,0.00,25.2,27.5,"18:39:28",1
"23/08/16","18:50",0.0,29.2,78.1,996.5,323.9,0.8,1.6,307.4,0.00,25.0,27.3,"18:49:20",1
"23/08/16","19:00",0.0,28.9,79.3,996.0,338.6,1.1,1.9,317.6,0.00,25.0,27.4,"18:57:52",1
"23/08/16","19:10",0.0,28.6,80.5,997.0,327.8,1.0,1.7,352.3,0.00,25.0,27.3,"19:02:40",1
"23/08/16","19:20",0.0,28.4,81.6,996.7,330.8,1.3,2.6,341.9,0.00,25.0,27.3,"19:18:08",1
"23/08/16","19:30",0.0,28.1,82.5,997.2,351.6,1.0,2.0,342.9,0.00,24.9,27.2,"19:20:24",1
"23/08/16","19:40",0.0,27.8,82.9,997.7,300.4,0.3,1.3,4.0,0.00,24.7,27.2,"19:30:08",1
"23/08/16","19:50",0.0,27.8,83.5,997.7,350.4,0.8,2.0,0.8,0.00,24.8,27.2,"19:44:48",1
"23/08/16","20:00",0.0,27.7,83.9,997.9,337.0,1.2,2.2,339.8,0.00,24.8,27.2,"19:52:32",1
"23/08/16","20:10",0.0,27.6,84.2,998.4,335.1,1.2,1.9,313.4,0.00,24.7,27.2,"20:09:44",1
"23/08/16","20:20",0.0,27.5,84.5,998.4,311.9,0.8,1.7,315.5,0.00,24.7,27.1,"20:13:28",1
"23/08/16","20:30",0.0,27.5,84.9,998.6,314.4,0.8,2.2,308.1,0.00,24.8,26.9,"20:27:04",1
"23/08/16","20:40",0.0,27.2,85.4,998.6,326.9,1.5,2.2,317.9,0.00,24.6,27.1,"20:36:24",1
"23/08/16","20:50",0.0,27.1,85.8,998.6,315.3,0.8,1.9,336.6,0.00,24.6,27.0,"20:43:20",1
"23/08/16","21:00",0.0,27.0,86.0,998.6,254.1,0.7,1.7,238.9,0.00,24.5,27.0,"20:55:44",1
"23/08/16","21:10",0.0,27.1,86.2,998.9,310.1,1.5,2.0,332.4,0.00,24.6,26.8,"21:08:32",1
"23/08/16","21:20",0.0,27.1,86.2,999.1,318.4,1.1,2.0,324.5,0.00,24.6,26.9,"21:15:28",1
"23/08/16","21:30",0.0,27.1,86.4,999.1,298.6,0.8,1.4,255.8,0.00,24.7,26.9,"21:27:04",1
"23/08/16","21:40",0.0,26.9,86.5,999.1,310.0,0.7,1.6,328.6,0.00,24.5,26.7,"21:37:36",1
"23/08/16","21:50",0.0,26.9,86.7,998.9,324.7,0.7,1.6,336.8,0.00,24.5,26.7,"21:48:00",1
"23/08/16","22:00",0.0,26.9,86.8,999.1,299.5,0.7,1.2,319.0,0.00,24.6,26.8,"21:50:16",1
"23/08/16","22:10",0.0,26.7,87.0,999.1,321.3,0.8,1.4,310.0,0.00,24.4,26.7,"22:08:08",1
"23/08/16","22:20",0.0,26.7,87.1,999.1,291.4,1.0,1.9,313.7,0.00,24.4,26.8,"22:12:00",1
"23/08/16","22:30",0.0,26.6,87.2,999.1,284.4,0.7,1.3,322.8,0.00,24.3,26.6,"22:20:56",1
"23/08/16","22:40",0.0,26.6,87.3,999.3,305.5,0.7,1.1,340.8,0.00,24.4,26.7,"22:37:28",1
"23/08/16","22:50",0.0,26.6,87.5,999.1,330.6,0.7,1.3,329.7,0.00,24.4,26.7,"22:45:12",1
"23/08/16","23:00",0.0,26.4,87.9,999.1,317.0,0.8,1.6,342.0,0.00,24.3,26.7,"22:58:08",1
"23/08/16","23:10",0.0,26.2,88.3,999.3,312.1,0.7,1.0,321.4,0.00,24.2,26.7,"23:02:08",1
"23/08/16","23:20",0.0,26.1,88.7,999.3,308.3,0.8,1.3,310.9,0.00,24.1,26.7,"23:13:52",1
"23/08/16","23:30",0.0,26.1,89.0,999.1,331.3,1.0,1.4,335.2,0.00,24.2,26.5,"23:22:16",1
"23/08/16","23:40",0.0,26.0,89.2,999.3,317.8,0.8,1.4,343.9,0.00,24.1,26.5,"23:31:52",1
"23/08/16","23:50",0.0,26.0,89.5,999.3,279.5,0.6,1.2,266.6,0.00,24.2,26.5,"23:48:48",1
"23/08/16","24:00",0.0,26.0,89.6,999.8,299.1,0.8,1.7,301.3,0.00,24.2,26.5,"23:57:44",1
